STARLINK-32886, 62807

Orbit data source: Space-Track

STARLINK-32886, 62807 is a payload satellite owned by SpaceX/Seattle (US) in LEO that was launched on Fri, 24 Jan 2025 UTC via an FALCON 9 launch vehicle from the Air Force Western Test Range (AFWTR). Payload-class satellites include a variety of spacecraft equipped with specific instruments for various scientific and technological missions. These include communications satellites like Starlink; space stations such as the ISS; scientific satellites like the Hubble; Earth observation satellites from companies like Planet Labs, Umbra, and HawkEye 360; GPS; miniature CubeSats for education and research; and military/defense satellites.

Loading next visibility...
Identifier
62807, 2025-018B
Orbit
LEO
Last TLE update
5 hours ago
Origin
Manufacturer
SpaceX/Seattle
Mission
Operational Commercial Communications
Bus & Motor
STARLINK V2M, Unknown motor
Mass
730 kg wet, ~700 kg dry
Launch date (UTC)
2025-01-24 (6 months ago)
Launch vehicle
FALCON 9
Launch site
Air Force Western Test Range (AFWTR)
Object type
Payload
Rocket body
Debris
Shape & HBR
Box + 2 Pan, 14.5 m
Radar Cross Section
33.884 m², Large (>1 m²)

Expand to show TLE details & history

TLE from 5 hours ago
0 STARLINK-32886
1 62807U 25018B   25199.49636292  .00019789  00000-0  67899-3 0  9992
2 62807  53.1559 317.3144 0001142  79.7943 280.3186 15.30175310 28221
Epoch: 2025-07-18T11:54Z
TLE epoch observation values (Epoch: 2025-07-18T11:54:45.756Z)
Latitude
-0.00005°
Longitude
-157.92327°
Altitude
476.048 km
Speed
7.629 km/s
True Right ascension
21h 09m 15s
True Declination
0° 00' 00"
Sunlit
Object was in full shadow at epoch
Visualization orbit readout
Latitude
15.88609°
Longitude
-146.60698°
Altitude
475.096 km
Speed
7.631 km/s
Apparent Right ascension
20h 03m 38s
Apparent Declination
-12° 52' 10"
Sunlit
Object is in full shadow
Visualization observer readout
Local Sidereal Time
05:28:37
Azimuth
297.447° NW
Elevation
-46.552°
Doppler factor
1
Orbital elements
Apogee altitude
476.329 km
Perigee altitude
474.763 km
Semi-major axis
6,853.683 km
Eccentricity
0.00011
Inclination
53.1559°
RAAN
317.3144°
Arg. of periapsis
79.7943°
True anomaly
280.30572°
Mean anomaly
280.3186°
Eccentric anomaly
280.31216°
Mean motion
3.82523 °/min
Orbital period
94.11 mins
BSTAR
0.00067899
Loading maneuver chart data...
Loading SW <> Apogee altitude chart data...
Loading historical data...
Loading historical data...
Loading historical data...
Loading historical data...
Loading historical data...
Loading historical data...
Loading historical data...
|